Wind_Speed
27 26 27 27 26 25 23 21 19 17 15 13 12 11 10 9 9 9 8 8 8 8 8 8 8 8 7 6 5 4 3 3 2 1 1 0 1 1 2 3 4 4 5
29 29 30 30 30 28 26 25 23 21 19 17 15 14 13 12 12 12 11 10 10 9 9 9 9 8 8 6 5 4 3 2 2 1 1 2 2 3 4 5 6 6 7
31 31 31 31 32 31 30 28 26 24 22 20 18 17 16 15 15 14 13 12 12 11 11 10 10 9 8 7 6 5 5 4 3 3 3 4 4 5 6 7 8 9 9
35 33 32 31 31 32 32 30 29 27 26 24 22 20 19 18 18 17 15 14 14 13 13 12 12 11 10 9 8 8 7 7 6 6 6 6 6 7 8 9 10 11 12
37 35 34 32 32 32 32 32 30 29 28 27 26 24 23 21 21 20 19 17 16 15 15 14 14 13 12 11 11 10 10 9 9 9 9 9 9 10 11 11 12 13 13
40 39 37 35 34 32 32 33 33 31 30 29 28 27 27 25 23 22 22 20 19 17 16 16 16 15 15 14 13 13 12 12 12 12 12 12 13 13 13 14 14 14 15
42 41 40 39 36 33 32 33 33 33 32 31 30 29 29 28 26 25 24 23 22 21 19 18 18 17 17 16 16 15 15 15 15 15 15 15 16 16 16 16 16 16 17
42 43 42 40 39 37 34 33 33 31 32 32 31 30 30 30 29 28 27 26 25 23 22 21 20 20 19 19 18 18 18 18 18 18 18 18 18 18 18 18 18 19 19
41 41 42 42 41 39 36 34 33 33 31 32 32 30 30 31 31 30 29 28 26 25 24 23 22 21 21 21 21 21 21 20 20 20 20 20 20 20 20 20 20 20 20
38 39 40 41 41 40 37 35 35 34 32 32 33 33 33 33 33 31 31 29 28 27 26 25 24 24 23 23 23 23 23 23 23 23 23 23 23 22 22 22 22 22 22
36 38 39 40 40 39 38 36 37 35 34 33 33 34 35 34 34 33 32 31 29 28 28 27 27 26 26 26 25 25 25 25 25 24 24 24 24 24 24 24 24 24 25
34 36 37 38 39 39 38 38 38 37 36 35 35 35 35 35 36 35 35 34 32 31 29 28 27 27 27 27 27 27 26 25 25 26 26 25 25 25 26 26 26 27 27
30 33 35 36 38 39 39 39 38 37 36 36 36 37 37 35 34 36 37 36 35 33 31 29 28 27 28 29 28 27 27 26 26 25 26 26 26 27 27 27 28 28 28
26 29 31 34 36 38 39 39 39 38 37 36 36 37 37 37 36 37 38 37 37 36 34 32 31 30 29 28 27 27 27 27 27 27 27 27 27 28 28 28 28 29 30
20 24 28 31 34 36 39 39 38 38 37 36 36 36 37 38 38 38 37 37 37 37 36 35 33 32 31 30 29 29 29 29 28 28 28 28 28 28 29 28 28 29 29
14 18 23 27 30 33 36 37 38 39 39 37 36 36 36 37 39 40 39 38 38 37 37 36 35 34 32 31 31 30 29 28 29 28 28 28 28 29 29 30 30 29 28
9 12 17 21 25 28 32 35 38 39 39 38 38 37 37 36 37 37 37 38 38 38 37 37 36 34 33 32 32 31 29 28 29 28 28 27 27 28 29 29 29 28 27
7 9 12 16 19 23 27 31 34 36 37 37 37 37 36 37 37 37 38 37 37 37 37 36 35 33 33 32 31 30 30 30 30 29 28 29 28 28 27 27 27 26 26
8 7 9 12 16 19 22 25 29 32 35 36 37 37 36 36 36 37 37 37 36 36 36 36 34 33 32 31 30 30 30 30 31 30 29 30 29 28 27 27 26 26 25
10 9 7 8 11 15 19 22 26 29 32 34 35 36 36 36 35 35 36 35 35 35 35 34 33 32 31 30 30 29 29 29 28 28 28 27 27 27 26 25 25 23 22
11 10 8 7 9 11 14 18 21 24 26 29 32 33 33 34 34 34 34 34 35 35 34 33 33 32 30 29 28 28 28 27 27 27 27 26 25 24 23 22 21 20 20
12 10 9 7 8 10 12 15 18 21 23 25 28 30 31 30 30 32 33 32 32 32 32 31 30 29 28 27 27 27 27 26 26 25 25 24 22 21 20 20 19 18 17
14 11 9 7 7 8 10 12 14 18 20 22 23 25 28 28 28 29 30 28 28 29 29 28 27 26 25 25 25 25 24 24 23 23 22 21 20 19 18 17 16 15 15
15 13 10 8 6 6 7 9 11 13 16 18 20 22 23 24 25 26 26 25 24 25 25 25 25 24 24 23 23 22 22 22 22 21 19 18 17 16 15 14 13 13 12
18 15 12 10 7 5 5 6 8 11 13 15 17 19 21 22 22 23 23 22 22 22 22 22 22 22 22 22 22 21 21 21 20 18 17 17 16 14 13 12 12 11 11
20 18 15 12 9 6 3 3 5 7 10 12 13 15 17 19 20 21 20 20 20 20 20 20 20 20 21 20 20 20 19 19 18 17 16 15 13 12 12 11 10 10 9
Wind_Direction
255 257 256 253 248 246 245 244 242 242 239 237 234 233 231 229 228 224 221 217 213 207 203 201 198 194 191 188 184 177 167 158 149 148 154 171 235 270 289 295 294 289 288
254 255 257 257 251 245 242 241 239 240 239 237 234 233 231 231 231 231 227 225 224 219 215 211 208 206 206 205 204 204 206 214 229 250 271 291 296 298 300 301 305 299 296
254 255 258 260 254 247 242 239 238 238 238 238 237 236 235 236 236 234 231 230 229 228 225 221 218 218 219 220 222 228 237 250 260 269 282 295 301 303 305 307 309 307 304
253 255 256 258 256 250 245 242 239 238 237 237 237 236 236 236 237 235 233 233 233 232 230 228 227 226 227 231 236 241 249 258 266 273 281 288 295 298 300 303 305 306 306
253 254 256 257 257 254 249 243 239 236 236 235 235 235 235 235 235 235 234 234 235 235 234 233 233 235 236 239 243 248 255 262 268 274 279 283 286 291 295 298 300 303 304
252 253 253 254 255 253 250 246 240 237 236 235 234 235 234 235 234 235 236 235 236 237 237 238 238 240 242 245 248 253 257 262 268 273 277 280 282 285 289 293 295 299 301
251 251 252 252 252 252 250 249 242 238 236 236 236 236 235 233 233 233 236 237 237 237 238 241 242 243 245 248 252 255 259 262 267 271 274 277 279 282 285 289 293 295 297
250 249 249 249 249 250 249 247 242 239 237 235 236 237 235 234 234 234 234 236 238 239 239 241 244 246 248 250 253 256 260 263 267 270 272 275 278 280 282 286 290 292 294
248 246 245 246 246 246 246 243 239 237 237 235 235 235 233 233 234 234 235 234 236 240 241 242 244 247 249 251 254 257 260 263 266 269 271 274 277 279 280 282 286 289 291
246 244 242 242 242 242 242 240 238 235 236 236 235 233 232 233 233 235 235 234 236 239 241 242 244 245 248 251 255 257 259 261 264 268 270 273 275 278 280 281 283 286 288
246 243 240 239 240 239 237 237 236 235 235 234 235 233 232 232 233 235 236 235 235 237 239 241 244 245 249 252 255 256 258 261 263 266 269 272 274 277 278 279 280 283 285
245 242 240 238 237 235 234 235 234 234 234 235 235 234 233 233 233 234 235 235 235 236 238 239 242 245 248 252 254 255 258 260 262 266 269 271 273 276 278 279 280 281 284
245 242 238 235 233 232 232 233 233 232 232 234 235 234 234 234 233 233 234 235 235 235 236 237 239 242 245 248 251 254 258 261 263 267 270 273 274 276 277 278 280 281 283
246 241 237 234 231 230 230 230 230 230 230 232 234 234 234 233 234 234 235 235 236 235 236 238 239 240 243 245 247 250 255 259 262 265 270 273 274 275 275 277 279 280 282
248 241 237 235 231 229 229 229 229 230 229 230 231 233 233 233 233 234 233 233 235 235 236 238 240 240 241 243 246 250 252 257 260 264 269 272 273 273 275 276 278 280 280
251 243 238 233 231 230 229 228 227 227 227 228 229 230 231 232 232 233 234 235 234 235 236 238 239 239 241 243 246 249 253 255 258 264 269 270 272 273 275 276 278 278 279
266 250 243 236 232 230 228 228 228 227 226 227 228 229 229 230 231 231 231 233 234 235 236 237 238 240 242 245 248 249 252 255 258 262 266 269 271 273 274 276 276 276 278
283 258 248 241 236 233 231 229 229 228 227 227 227 228 230 230 231 231 231 232 232 234 234 235 237 239 241 245 247 249 253 255 257 260 264 267 268 271 272 274 274 276 278
321 284 258 249 241 236 233 231 228 227 228 229 229 229 229 229 229 229 229 231 233 233 234 236 238 240 243 245 247 251 254 256 258 262 264 264 264 266 269 271 273 274 276
334 319 291 266 249 242 237 235 232 231 230 230 230 231 232 231 233 232 233 234 233 232 234 234 236 239 242 244 246 250 254 257 259 261 262 262 262 264 266 269 270 273 276
336 326 312 282 262 249 243 238 235 232 230 229 229 230 231 232 232 232 233 233 231 231 232 234 237 238 241 243 246 249 252 255 257 259 260 259 259 260 262 265 268 271 273
343 331 315 300 272 255 245 239 235 232 230 229 229 230 232 232 231 230 230 229 229 230 232 234 236 237 240 243 245 247 249 250 253 255 256 256 256 256 258 262 265 267 271
354 346 331 314 294 269 254 243 236 230 227 226 226 226 228 229 229 228 228 227 227 228 228 229 231 234 236 238 240 242 244 245 249 251 251 251 252 252 253 257 260 265 268
2 358 350 336 318 290 264 248 236 229 224 223 222 222 223 225 226 224 223 224 224 224 224 226 227 229 231 234 236 238 240 241 241 240 242 243 245 246 248 251 256 260 265
11 9 3 356 345 324 282 253 241 232 226 222 220 219 219 221 220 220 219 218 218 220 220 221 221 225 228 228 228 230 233 233 233 231 232 235 238 241 241 245 251 257 263
19 18 15 12 6 354 319 263 239 227 221 220 217 215 214 214 213 212 212 213 213 213 214 215 218 221 222 221 221 222 223 223 224 224 227 228 230 234 238 243 249 255 261
Height
5887 5888 5888 5889 5890 5892 5893 5895 5896 5897 5898 5899 5900 5901 5901 5902 5902 5903 5904 5905 5905 5906 5907 5908 5909 5910 5911 5912 5912 5913 5913 5914 5914 5915 5915 5916 5916 5916 5917 5917 5917 5917 5916
5880 5881 5882 5883 5884 5886 5888 5890 5892 5893 5894 5896 5897 5898 5899 5900 5901 5902 5903 5903 5904 5905 5906 5907 5908 5909 5910 5911 5912 5912 5913 5913 5914 5914 5915 5915 5915 5916 5916 5916 5916 5915 5915
5872 5874 5875 5876 5877 5879 5881 5883 5886 5888 5890 5892 5893 5895 5896 5897 5898 5899 5901 5902 5903 5904 5905 5906 5907 5908 5909 5910 5911 5912 5912 5913 5913 5913 5914 5914 5914 5914 5914 5914 5914 5914 5914
5864 5866 5868 5869 5871 5872 5874 5876 5879 5882 5885 5887 5889 5891 5892 5894 5895 5897 5898 5899 5901 5902 5903 5904 5905 5906 5907 5908 5909 5910 5911 5911 5912 5912 5912 5912 5913 5913 5913 5913 5912 5912 5912
5855 5858 5860 5861 5863 5865 5867 5869 5872 5875 5878 5881 5883 5886 5888 5890 5891 5893 5895 5896 5898 5899 5901 5902 5903 5904 5905 5906 5907 5908 5909 5909 5910 5910 5910 5911 5911 5911 5911 5910 5910 5910 5909
5846 5848 5851 5853 5855 5858 5860 5862 5865 5869 5872 5875 5877 5880 5883 5885 5887 5889 5891 5892 5894 5896 5897 5899 5900 5902 5903 5904 5905 5905 5906 5907 5907 5908 5908 5908 5908 5908 5908 5908 5907 5907 5906
5835 5838 5841 5844 5847 5849 5852 5855 5857 5861 5864 5868 5871 5873 5876 5879 5882 5884 5886 5888 5890 5892 5894 5895 5897 5898 5899 5901 5901 5902 5903 5904 5904 5905 5905 5905 5905 5905 5905 5905 5904 5904 5903
5823 5827 5830 5834 5837 5841 5844 5847 5850 5853 5856 5860 5863 5865 5869 5873 5876 5878 5881 5883 5885 5887 5889 5891 5893 5894 5895 5897 5898 5898 5899 5900 5901 5901 5901 5901 5901 5901 5901 5901 5900 5900 5899
5811 5815 5819 5823 5827 5831 5835 5839 5842 5845 5848 5852 5856 5859 5862 5866 5869 5872 5875 5878 5880 5882 5884 5886 5888 5890 5891 5892 5893 5894 5895 5896 5896 5897 5897 5897 5897 5897 5897 5896 5896 5895 5895
5799 5803 5808 5812 5816 5821 5826 5830 5834 5837 5840 5844 5848 5851 5855 5859 5862 5866 5869 5872 5875 5877 5879 5881 5883 5884 5886 5887 5888 5889 5890 5891 5891 5892 5892 5892 5892 5892 5892 5892 5891 5891 5890
5788 5792 5796 5801 5805 5811 5816 5820 5825 5829 5832 5836 5839 5843 5847 5851 5855 5859 5862 5865 5868 5871 5873 5875 5877 5879 5880 5881 5883 5883 5884 5885 5886 5886 5887 5887 5887 5887 5887 5887 5886 5885 5885
5777 5781 5785 5790 5795 5800 5805 5810 5815 5819 5823 5827 5831 5835 5839 5843 5847 5851 5854 5858 5861 5864 5867 5870 5871 5873 5874 5875 5876 5878 5879 5880 5880 5881 5881 5882 5882 5882 5882 5881 5880 5880 5879
5769 5771 5775 5780 5784 5789 5795 5800 5805 5809 5814 5818 5822 5826 5830 5834 5838 5842 5846 5850 5853 5857 5860 5863 5865 5867 5868 5869 5870 5872 5873 5874 5875 5875 5876 5876 5876 5876 5876 5875 5874 5874 5873
5761 5763 5766 5770 5775 5780 5785 5790 5794 5799 5804 5809 5813 5817 5822 5826 5830 5834 5838 5842 5846 5850 5853 5856 5858 5861 5862 5863 5865 5866 5867 5868 5869 5870 5870 5870 5870 5870 5870 5869 5868 5867 5867
5754 5755 5758 5762 5766 5770 5775 5780 5785 5790 5795 5800 5804 5809 5813 5817 5821 5825 5829 5834 5838 5842 5845 5848 5851 5854 5856 5858 5859 5860 5861 5862 5863 5864 5864 5864 5864 5863 5863 5862 5862 5861 5860
5748 5749 5752 5754 5758 5762 5766 5771 5776 5781 5786 5791 5795 5800 5804 5808 5812 5816 5821 5825 5829 5833 5836 5840 5843 5846 5848 5851 5852 5853 5855 5856 5857 5858 5858 5858 5858 5857 5856 5856 5855 5854 5853
5745 5746 5747 5749 5751 5755 5758 5763 5767 5771 5776 5781 5786 5791 5795 5799 5803 5807 5811 5816 5820 5824 5828 5831 5834 5838 5841 5843 5845 5846 5848 5849 5850 5851 5851 5851 5851 5850 5850 5849 5849 5848 5847
5744 5743 5743 5744 5746 5748 5751 5755 5759 5763 5767 5772 5777 5781 5785 5790 5794 5798 5803 5807 5811 5815 5819 5823 5826 5829 5832 5835 5837 5839 5841 5842 5843 5844 5844 5844 5844 5844 5844 5843 5842 5841 5841
5742 5741 5740 5741 5741 5743 5745 5748 5752 5755 5759 5764 5768 5773 5777 5781 5785 5790 5794 5798 5802 5806 5811 5814 5818 5821 5824 5827 5830 5832 5833 5835 5836 5837 5837 5838 5838 5838 5837 5837 5836 5835 5835
5741 5739 5738 5737 5737 5738 5740 5742 5745 5748 5752 5756 5760 5765 5769 5773 5777 5781 5786 5790 5794 5798 5802 5806 5810 5814 5817 5820 5822 5824 5826 5827 5829 5830 5830 5831 5831 5831 5831 5831 5831 5830 5829
5739 5737 5736 5735 5734 5735 5735 5737 5739 5742 5745 5749 5753 5757 5761 5765 5769 5774 5778 5781 5785 5790 5794 5798 5802 5806 5809 5812 5815 5817 5819 5820 5821 5823 5824 5824 5825 5825 5825 5825 5825 5825 5824
5738 5735 5733 5732 5731 5731 5731 5732 5734 5736 5739 5743 5746 5750 5754 5758 5762 5766 5770 5773 5778 5782 5786 5791 5795 5798 5802 5805 5808 5810 5812 5814 5815 5816 5817 5818 5819 5820 5820 5820 5820 5820 5819
5736 5733 5730 5729 5728 5727 5728 5728 5729 5731 5734 5737 5740 5744 5748 5752 5755 5759 5762 5766 5771 5775 5779 5784 5788 5791 5795 5798 5801 5803 5806 5807 5809 5810 5812 5812 5814 5814 5815 5815 5815 5815 5815
5734 5731 5728 5726 5725 5725 5724 5724 5725 5727 5729 5732 5735 5738 5742 5746 5749 5753 5757 5761 5765 5769 5773 5778 5781 5785 5789 5792 5795 5798 5800 5802 5803 5805 5807 5808 5809 5810 5810 5811 5811 5811 5811
5734 5730 5728 5725 5723 5722 5722 5722 5722 5724 5726 5728 5730 5733 5737 5740 5744 5748 5752 5756 5760 5764 5768 5772 5776 5780 5783 5786 5789 5792 5794 5797 5799 5800 5803 5804 5805 5805 5806 5807 5808 5808 5808
5736 5731 5728 5725 5723 5721 5720 5720 5720 5721 5723 5725 5727 5730 5732 5736 5739 5743 5748 5752 5756 5760 5764 5767 5771 5775 5778 5781 5784 5787 5790 5793 5795 5797 5799 5800 5801 5802 5803 5804 5804 5805 5805